Vorticity
23 22 20 19 18 18 17 16 16 15 15 17 20 18 15 16 26 35 34 16 -4 -9 1 27 25 15 6 5 8 10 11 11 12 10 8 4 4 11 23 36 33 23 13 4 5 10 14 15 13 10 7 4 3 3 3 2 2 2 4 7 8 8 7 6 4 3 3 4 4
22 21 20 19 19 18 18 16 16 17 19 21 23 23 19 12 1 13 23 7 -16 -17 -2 23 21 16 12 12 14 14 13 12 10 7 4 2 5 12 21 30 31 27 21 16 14 15 16 16 15 12 7 4 2 1 -1 -2 -2 1 5 10 11 11 9 7 6 6 6 5 3
24 22 21 20 19 19 18 17 16 18 20 23 20 21 23 22 5 8 11 -7 -30 -29 -12 11 15 16 16 18 18 17 14 10 7 6 6 9 14 19 23 27 27 23 18 14 13 13 14 16 16 13 9 3 -1 -4 -6 -7 -4 1 7 12 13 13 11 9 8 7 5 2 -0
26 27 24 20 19 18 18 18 15 16 20 23 19 17 18 20 20 21 13 -12 -38 -36 -18 5 10 13 15 17 16 13 10 8 7 9 13 18 23 25 25 25 22 17 12 9 8 8 9 10 11 9 5 -0 -4 -6 -7 -6 0 6 10 12 13 13 13 10 8 4 -0 -4 -4
28 32 30 21 19 18 18 17 16 16 18 22 23 20 13 7 21 20 7 -12 -35 -33 -18 -1 6 11 14 15 12 8 5 4 7 12 17 21 22 23 22 20 16 12 7 4 3 3 2 1 1 -1 -2 -4 -5 -5 -3 1 6 9 11 12 13 13 13 10 4 -3 -8 -10 -6
26 30 29 23 21 20 18 15 17 18 19 20 24 19 10 2 12 5 -8 -17 -28 -27 -18 -5 7 16 20 18 12 7 3 1 7 12 15 15 14 13 13 12 10 8 4 1 -1 -3 -5 -7 -7 -7 -7 -6 -5 -3 -0 4 8 10 12 13 13 13 12 9 -0 -9 -13 -11 -4
27 29 29 25 22 20 18 14 19 22 22 21 22 19 16 16 15 5 -10 -23 -28 -26 -18 -4 15 26 28 23 16 10 6 6 11 13 12 9 7 6 6 7 7 6 4 0 -3 -5 -7 -9 -8 -8 -6 -5 -5 -4 -1 3 8 11 13 14 13 12 10 5 -5 -10 -10 -5 0
28 31 30 23 21 18 15 13 21 22 21 22 17 12 10 17 20 11 -4 -18 -27 -25 -16 -2 18 28 32 30 27 24 22 21 20 15 10 6 7 8 9 9 9 7 5 2 -1 -3 -4 -5 -5 -4 -4 -4 -5 -5 -2 3 10 13 14 13 12 10 5 -2 -7 -7 -3 2 7
29 32 29 17 18 14 10 8 18 21 20 19 8 4 7 15 22 13 -0 -9 -17 -19 -14 -4 8 17 24 29 35 41 44 42 28 14 4 2 5 8 11 15 16 15 13 9 6 4 2 0 -0 -0 -1 -3 -5 -5 -1 6 14 17 17 15 11 4 -2 -7 -4 1 6 11 13
31 29 25 20 20 17 13 11 18 19 16 11 1 0 3 7 13 17 15 4 -7 -12 -11 -4 2 9 16 22 31 42 50 50 29 9 -4 -6 -3 1 7 15 24 28 29 26 21 15 11 8 7 5 2 -2 -5 -3 2 12 20 22 20 13 2 -6 -9 -4 5 11 14 16 16
31 27 22 20 19 17 14 14 20 19 14 6 1 -1 -2 -2 6 11 10 1 -8 -8 -2 7 10 13 16 19 23 30 37 40 27 13 2 -1 1 4 7 11 20 28 33 34 30 26 21 18 15 10 5 -1 -2 1 8 17 24 22 14 -1 -15 -17 -9 6 14 17 17 16 15
30 26 22 20 15 13 13 15 22 23 19 13 8 3 -3 -8 -5 1 4 -4 -6 0 11 24 22 20 17 16 14 16 18 22 20 16 13 13 14 13 11 8 12 17 23 25 24 23 22 20 17 12 7 2 2 5 10 18 19 11 -2 -17 -21 -14 -0 13 16 16 15 13 12
30 29 26 22 11 9 12 16 20 23 25 24 18 8 -3 -12 -15 -11 -6 -5 0 12 25 31 22 15 10 7 4 2 1 3 5 6 8 13 16 16 14 10 8 11 14 17 16 16 16 15 14 11 7 3 1 2 5 8 4 -4 -12 -17 -11 -2 8 14 13 13 11 11 10
31 33 31 22 4 2 8 17 19 22 26 29 24 15 5 -5 -8 -8 -6 0 12 22 25 18 9 3 0 -2 -4 -6 -7 -7 -4 -2 1 7 11 14 16 15 13 11 11 13 13 13 13 13 12 10 7 3 -0 -2 -2 -2 -6 -8 -8 -4 2 7 10 11 10 10 10 10 11
33 38 36 21 -8 -14 -3 15 18 21 25 30 30 25 18 8 1 -0 5 15 22 20 12 1 -2 -4 -5 -6 -6 -7 -7 -7 -6 -4 -1 3 7 12 17 21 20 17 15 13 13 13 14 15 15 14 12 9 5 2 0 -2 -2 -0 3 7 9 10 10 9 9 10 10 12 13
34 42 41 22 -12 -24 -18 1 10 16 20 26 29 28 22 11 5 8 15 22 17 9 0 -4 -5 -5 -6 -7 -8 -8 -8 -8 -8 -6 -4 -0 5 12 18 23 24 22 20 17 16 16 16 18 19 20 20 19 16 12 10 8 9 10 11 12 11 11 11 11 12 13 13 15 16
32 42 45 31 -0 -19 -24 -18 -6 4 13 20 22 18 11 1 1 7 12 10 2 -3 -7 -8 -8 -8 -9 -10 -12 -12 -12 -12 -12 -10 -6 -2 5 13 19 24 25 24 22 19 17 16 17 18 20 23 24 25 23 21 19 18 17 16 16 15 15 15 15 16 17 16 16 16 17
25 36 44 43 21 1 -15 -21 -18 -8 3 11 8 1 -7 -8 -5 -4 -5 -10 -14 -16 -17 -17 -17 -16 -16 -16 -16 -17 -16 -15 -13 -9 -4 1 8 15 20 23 23 22 21 20 18 17 17 18 20 22 24 26 27 26 25 24 22 21 20 19 19 19 19 19 18 17 16 16 16
19 27 36 45 38 24 7 -7 -12 -10 -5 0 -6 -13 -16 -10 -9 -13 -20 -25 -27 -27 -26 -24 -23 -23 -22 -21 -19 -18 -16 -13 -7 -2 2 7 12 17 20 22 21 21 21 21 22 22 23 24 25 26 27 28 29 29 28 26 23 22 21 21 21 20 20 19 17 16 15 14 13
20 22 27 36 41 37 27 12 3 -1 -2 -3 -10 -16 -18 -12 -12 -17 -23 -27 -26 -24 -22 -20 -20 -20 -18 -16 -13 -9 -5 -1 4 7 10 11 15 18 20 21 20 21 22 24 26 28 28 29 29 28 28 27 26 24 23 20 19 19 19 18 19 19 18 17 15 13 11 9 9
18 19 21 25 32 35 34 26 17 13 10 6 -2 -8 -12 -13 -13 -15 -17 -16 -12 -7 -4 -3 -4 -3 -1 2 6 10 13 15 16 15 15 15 17 19 20 21 21 21 22 22 22 22 22 22 22 22 21 19 17 16 15 14 13 14 15 14 16 17 16 14 10 7 5 3 4
17 17 18 20 24 27 29 28 24 22 20 17 12 7 2 -2 -4 -5 -4 -1 6 11 15 16 16 17 18 20 22 23 23 23 21 19 18 17 18 19 20 21 20 19 17 14 11 10 9 9 11 12 12 12 11 11 10 8 8 7 8 10 13 14 14 11 7 2 -0 -1 2
19 21 22 21 22 23 24 25 24 23 22 23 21 18 14 11 10 11 12 15 19 23 25 26 27 28 28 28 28 26 24 22 21 20 19 18 18 18 18 18 17 15 12 8 5 3 2 2 6 8 8 6 6 6 6 5 5 4 3 6 10 13 14 11 7 4 2 3 6
10 16 20 23 24 24 24 24 24 24 24 24 24 23 21 20 21 22 23 24 25 26 26 26 27 27 27 26 24 22 21 20 20 20 20 19 18 17 16 15 13 11 9 6 4 3 2 2 4 7 7 5 3 2 3 5 5 4 2 5 11 15 17 17 15 13 12 13 15
2 4 8 13 18 22 24 25 25 25 25 25 26 26 25 25 25 25 24 23 22 21 20 20 21 21 21 20 19 18 18 19 19 20 20 20 18 16 13 11 9 7 6 4 4 4 4 4 4 4 4 3 4 4 4 6 6 5 5 9 14 19 22 24 23 22 21 20 20
7 6 5 4 7 11 16 19 20 21 22 24 26 27 27 26 24 22 20 18 17 16 16 15 16 16 16 15 14 14 15 16 18 19 19 18 16 13 10 7 5 4 3 3 4 7 9 10 8 5 3 1 4 5 6 6 6 6 8 11 15 19 22 24 24 23 21 20 19
11 11 10 6 3 4 5 7 8 10 13 15 18 20 19 18 16 15 14 14 14 13 12 12 12 12 11 10 10 10 10 11 13 15 15 14 11 8 5 3 3 2 2 3 4 6 8 8 6 5 4 3 3 4 6 6 6 7 8 9 11 14 16 18 18 17 15 14 12
7 9 10 9 6 4 3 3 4 4 5 5 5 5 5 5 6 8 9 11 10 10 9 8 7 6 5 4 4 4 5 6 8 9 10 9 7 4 2 1 1 1 2 3 4 5 5 4 4 4 5 6 7 7 7 7 6 6 6 6 6 7 8 9 10 9 9 7 6
4 5 7 10 10 9 7 6 6 6 6 5 3 1 -0 0 2 5 7 9 8 7 6 4 3 1 -0 -2 -2 -2 -0 2 4 5 5 5 4 2 1 0 0 1 2 4 6 6 5 5 5 7 9 11 12 12 10 9 7 6 5 4 4 3 4 5 6 7 7 6 4
1 2 4 8 13 13 12 10 9 9 9 7 4 2 0 0 2 5 8 9 6 3 0 -3 -4 -4 -4 -5 -5 -4 -3 -1 1 2 3 3 3 2 2 1 1 2 3 5 6 7 7 8 9 10 11 12 13 12 11 10 9 8 6 5 4 4 4 5 6 7 7 6 4
-0 -1 0 4 10 13 14 13 13 13 13 12 9 6 4 3 5 7 7 6 0 -5 -9 -11 -10 -8 -5 -2 -1 -1 -1 -0 1 2 3 3 3 3 3 3 3 3 4 4 4 5 6 7 7 7 6 6 6 7 7 8 8 8 7 6 5 5 5 5 6 6 6 5 3
4 1 -1 -0 4 8 11 12 13 15 15 15 13 12 11 10 10 9 6 0 -7 -13 -15 -14 -10 -5 0 5 6 7 7 6 5 5 5 5 5 6 6 6 6 5 5 4 3 3 3 2 2 1 1 0 1 2 4 6 7 8 8 7 6 5 5 4 5 5 5 4 2
10 6 3 0 1 2 4 6 7 9 10 11 11 11 11 11 9 6 1 -5 -10 -13 -12 -8 -3 3 7 11 13 13 13 12 10 9 8 7 7 8 8 8 9 8 7 6 5 4 3 3 2 2 1 1 1 2 4 5 6 7 7 8 7 6 5 4 4 3 3 3 2
14 12 9 6 4 3 2 2 2 3 4 6 6 6 5 3 1 -2 -5 -7 -6 -4 -0 4 8 11 13 13 14 14 14 13 12 11 10 9 8 8 8 9 9 9 9 8 8 7 6 6 6 6 5 5 4 4 4 4 4 5 7 8 8 7 6 5 4 4 4 4 5
22 20 18 15 13 10 8 6 4 4 4 4 5 4 3 1 -1 -2 -2 0 5 9 14 17 18 18 17 16 16 15 14 13 12 12 11 10 9 7 6 6 7 8 8 9 8 8 8 8 8 8 7 7 6 5 4 4 4 5 6 8 9 10 10 9 7 6 6 6 8
30 30 29 27 24 22 19 16 13 12 10 9 8 8 7 6 6 6 8 11 14 16 18 20 20 20 20 20 19 19 17 16 15 13 12 10 9 7 5 4 4 5 5 6 7 7 7 7 7 7 7 7 6 5 4 4 5 6 8 10 12 14 14 14 12 11 10 11 14
22 25 27 28 28 27 26 24 22 20 18 17 16 15 14 13 13 14 14 15 15 14 14 14 14 16 17 18 19 19 19 19 18 16 14 12 9 7 5 4 3 3 3 3 4 5 5 6 7 7 8 8 7 7 7 6 7 9 11 13 16 18 20 20 19 18 18 20 22
8 11 14 16 18 19 20 20 20 19 19 19 20 20 20 20 19 18 17 16 14 12 10 9 10 11 12 14 15 16 17 18 18 17 16 13 10 8 6 5 4 4 4 4 4 5 6 8 9 10 11 11 11 11 10 10 11 13 15 18 21 24 26 27 26 26 25 25 24
3 4 5 6 7 9 10 10 11 11 12 13 15 16 18 20 21 21 21 19 17 15 12 10 9 10 11 12 13 13 14 15 15 16 16 16 14 12 11 9 9 9 9 10 10 11 12 13 14 15 16 15 15 14 14 14 15 17 19 21 24 26 27 28 27 25 23 20 16
4 4 4 3 3 4 4 4 5 5 6 6 7 8 10 12 14 16 18 19 19 18 16 14 12 12 12 13 14 14 15 15 16 17 18 19 19 19 19 18 18 18 19 19 19 20 20 20 19 18 17 16 15 15 16 17 18 19 21 22 23 23 23 22 20 17 13 9 5
4 5 5 4 4 3 3 3 3 3 3 4 4 4 5 6 7 8 10 12 13 14 14 13 12 12 13 14 15 15 16 17 17 18 19 20 22 23 24 24 23 23 23 23 24 24 23 21 19 16 14 14 14 15 17 18 19 19 19 19 18 17 15 13 11 7 4 1 -1
Height
5572 5577 5583 5588 5594 5599 5604 5609 5614 5619 5623 5628 5633 5638 5643 5649 5653 5657 5661 5666 5673 5678 5681 5683 5685 5686 5688 5690 5692 5694 5696 5698 5700 5703 5705 5707 5709 5711 5712 5714 5715 5716 5717 5718 5721 5722 5723 5725 5726 5728 5729 5731 5733 5734 5736 5736 5737 5739 5740 5741 5741 5742 5743 5744 5745 5745 5746 5747 5748
5570 5575 5581 5586 5592 5597 5603 5608 5612 5617 5622 5627 5632 5637 5641 5646 5651 5655 5660 5665 5671 5675 5678 5680 5682 5683 5685 5687 5689 5691 5693 5695 5697 5699 5701 5703 5705 5706 5707 5709 5711 5712 5715 5717 5719 5720 5721 5721 5723 5724 5726 5728 5729 5731 5732 5734 5735 5736 5736 5737 5738 5739 5740 5741 5741 5742 5743 5744 5745
5570 5575 5580 5586 5591 5596 5601 5606 5612 5617 5622 5626 5631 5635 5639 5643 5648 5653 5658 5664 5669 5672 5675 5676 5678 5680 5682 5684 5686 5687 5689 5691 5693 5695 5697 5699 5701 5702 5704 5705 5708 5710 5712 5715 5717 5718 5718 5718 5719 5721 5723 5724 5726 5728 5729 5731 5732 5733 5734 5734 5735 5736 5737 5737 5738 5739 5740 5741 5742
5572 5577 5581 5585 5590 5596 5600 5606 5611 5616 5620 5625 5630 5633 5637 5641 5646 5651 5656 5661 5667 5670 5672 5674 5676 5677 5679 5681 5683 5684 5686 5688 5691 5693 5695 5696 5698 5700 5701 5703 5706 5708 5710 5712 5713 5714 5714 5715 5716 5718 5720 5721 5723 5725 5726 5728 5729 5730 5731 5731 5732 5733 5733 5735 5735 5736 5737 5738 5739
5571 5576 5580 5585 5590 5595 5601 5606 5611 5615 5620 5625 5628 5632 5636 5642 5646 5650 5655 5660 5665 5668 5670 5671 5673 5675 5677 5679 5681 5682 5684 5687 5691 5693 5694 5696 5697 5698 5700 5702 5703 5705 5706 5707 5708 5708 5709 5711 5713 5715 5717 5719 5721 5722 5724 5725 5726 5726 5727 5728 5728 5729 5730 5731 5732 5733 5734 5735 5736
5569 5574 5580 5585 5590 5596 5602 5606 5610 5615 5619 5623 5627 5632 5637 5643 5646 5649 5653 5658 5662 5665 5667 5669 5671 5673 5675 5678 5681 5684 5686 5688 5691 5693 5694 5695 5695 5696 5696 5697 5698 5700 5701 5702 5703 5704 5706 5707 5710 5712 5714 5716 5718 5720 5721 5722 5722 5723 5723 5724 5724 5725 5726 5728 5729 5730 5731 5731 5732
5570 5575 5580 5586 5592 5597 5602 5606 5611 5615 5619 5624 5629 5634 5639 5642 5645 5648 5652 5656 5660 5663 5665 5667 5669 5671 5674 5677 5681 5683 5685 5686 5688 5689 5690 5691 5690 5691 5691 5692 5694 5695 5696 5698 5699 5701 5703 5705 5707 5709 5711 5713 5715 5716 5717 5718 5719 5719 5719 5720 5721 5722 5723 5725 5726 5726 5727 5728 5728
5571 5576 5581 5587 5593 5598 5602 5607 5611 5615 5620 5625 5631 5636 5640 5643 5645 5648 5652 5656 5659 5661 5663 5665 5667 5668 5669 5672 5675 5677 5679 5681 5683 5684 5684 5685 5686 5687 5688 5690 5691 5693 5694 5696 5697 5699 5701 5703 5705 5707 5708 5710 5711 5713 5714 5715 5716 5716 5716 5717 5718 5720 5721 5721 5722 5723 5724 5724 5725
5572 5577 5583 5590 5595 5598 5603 5608 5611 5615 5620 5626 5631 5636 5640 5643 5646 5649 5652 5654 5657 5659 5661 5664 5664 5665 5665 5666 5668 5671 5673 5675 5678 5679 5681 5682 5684 5686 5687 5688 5689 5691 5692 5693 5695 5697 5699 5701 5702 5704 5706 5707 5709 5710 5711 5712 5712 5713 5714 5715 5716 5717 5718 5719 5719 5720 5721 5721 5722
5574 5579 5586 5592 5596 5599 5603 5607 5611 5614 5619 5625 5629 5634 5638 5641 5645 5648 5650 5652 5655 5658 5660 5661 5662 5663 5664 5664 5665 5667 5669 5672 5676 5678 5680 5681 5683 5684 5685 5686 5686 5687 5689 5691 5692 5695 5696 5698 5700 5701 5703 5705 5706 5707 5708 5709 5710 5710 5711 5712 5714 5714 5715 5716 5716 5717 5717 5718 5719
5575 5581 5587 5593 5597 5601 5604 5608 5612 5615 5619 5623 5626 5630 5634 5638 5643 5647 5650 5651 5653 5656 5657 5659 5661 5662 5663 5663 5665 5666 5668 5671 5674 5676 5678 5680 5680 5681 5682 5683 5684 5684 5686 5689 5691 5691 5693 5695 5697 5699 5701 5702 5703 5704 5705 5706 5706 5707 5709 5710 5711 5711 5712 5712 5713 5714 5714 5715 5716
5577 5582 5587 5592 5597 5602 5606 5610 5613 5616 5619 5621 5624 5628 5631 5636 5641 5646 5648 5649 5651 5653 5655 5657 5659 5661 5662 5663 5664 5666 5668 5671 5673 5675 5677 5678 5679 5679 5680 5681 5682 5683 5684 5687 5688 5689 5689 5691 5694 5696 5698 5699 5700 5701 5701 5702 5703 5705 5706 5706 5707 5707 5708 5709 5710 5711 5711 5712 5713
5579 5584 5588 5593 5597 5603 5607 5610 5613 5615 5618 5621 5624 5627 5631 5635 5639 5642 5644 5646 5648 5651 5653 5655 5657 5658 5660 5662 5663 5665 5667 5670 5672 5674 5676 5677 5677 5677 5678 5679 5680 5681 5683 5684 5685 5686 5686 5687 5690 5692 5694 5695 5696 5697 5698 5699 5700 5701 5702 5703 5703 5704 5705 5706 5706 5707 5708 5709 5710
5581 5586 5590 5592 5597 5602 5606 5609 5611 5614 5617 5621 5624 5627 5631 5634 5637 5640 5642 5645 5647 5649 5651 5653 5654 5656 5657 5659 5661 5663 5665 5667 5669 5671 5672 5673 5673 5674 5675 5676 5677 5679 5681 5681 5682 5683 5683 5684 5686 5688 5690 5691 5693 5694 5695 5696 5697 5698 5699 5700 5701 5701 5702 5703 5704 5705 5705 5706 5707
5584 5588 5591 5594 5597 5601 5603 5606 5610 5613 5617 5621 5624 5628 5631 5634 5637 5639 5641 5644 5646 5647 5649 5650 5651 5653 5654 5656 5658 5659 5661 5663 5664 5666 5667 5668 5669 5671 5672 5673 5674 5676 5677 5679 5680 5681 5681 5682 5683 5685 5686 5688 5689 5690 5691 5692 5693 5694 5696 5696 5697 5698 5699 5700 5701 5701 5702 5703 5705
5587 5590 5592 5595 5597 5599 5601 5605 5609 5613 5617 5621 5624 5628 5631 5635 5637 5639 5641 5643 5645 5646 5647 5648 5650 5651 5652 5654 5655 5656 5658 5660 5661 5663 5664 5666 5667 5668 5669 5670 5671 5673 5674 5676 5677 5678 5679 5680 5681 5682 5684 5684 5685 5686 5687 5689 5690 5691 5692 5693 5694 5695 5695 5696 5697 5699 5700 5701 5702
5590 5592 5594 5596 5599 5600 5602 5606 5609 5613 5616 5620 5623 5627 5631 5634 5636 5638 5640 5642 5643 5645 5646 5647 5648 5650 5651 5653 5654 5655 5656 5658 5659 5661 5662 5663 5664 5666 5666 5667 5668 5669 5671 5672 5673 5675 5676 5678 5679 5680 5681 5681 5682 5683 5684 5685 5686 5687 5688 5689 5690 5691 5692 5693 5695 5696 5696 5698 5699
5591 5593 5596 5599 5601 5603 5605 5607 5610 5614 5617 5620 5623 5626 5629 5633 5636 5638 5640 5641 5642 5644 5645 5646 5648 5649 5650 5652 5653 5654 5655 5656 5658 5659 5660 5661 5662 5663 5664 5664 5665 5666 5667 5668 5670 5671 5673 5674 5676 5676 5677 5678 5679 5680 5680 5681 5682 5683 5684 5685 5686 5688 5689 5690 5691 5692 5693 5695 5696
5591 5595 5598 5601 5603 5606 5607 5610 5612 5615 5618 5620 5622 5624 5626 5630 5633 5636 5637 5639 5640 5641 5643 5645 5646 5647 5649 5650 5652 5653 5654 5655 5656 5657 5658 5659 5660 5660 5661 5661 5662 5663 5664 5665 5666 5668 5669 5671 5671 5673 5674 5674 5675 5676 5676 5677 5678 5679 5680 5682 5683 5685 5686 5687 5688 5690 5691 5692 5692
5593 5596 5599 5602 5605 5607 5610 5612 5614 5616 5619 5621 5622 5623 5624 5627 5629 5631 5634 5636 5637 5639 5641 5642 5644 5646 5647 5648 5650 5651 5652 5653 5654 5655 5656 5656 5657 5658 5658 5659 5659 5660 5661 5662 5663 5664 5665 5666 5667 5668 5670 5670 5671 5672 5672 5673 5675 5677 5678 5679 5681 5682 5683 5684 5685 5687 5689 5689 5689
5596 5599 5601 5604 5606 5609 5612 5614 5616 5618 5620 5622 5622 5623 5624 5626 5627 5628 5631 5633 5636 5637 5639 5641 5642 5644 5645 5646 5647 5649 5650 5651 5651 5652 5653 5654 5654 5655 5656 5656 5657 5658 5658 5659 5660 5661 5661 5662 5664 5665 5666 5666 5667 5668 5669 5671 5672 5675 5676 5677 5678 5680 5681 5682 5683 5684 5685 5686 5686
5595 5597 5601 5605 5608 5611 5613 5616 5618 5620 5621 5622 5623 5624 5625 5626 5627 5628 5630 5633 5635 5637 5638 5640 5641 5642 5643 5644 5645 5646 5646 5647 5648 5649 5650 5651 5651 5652 5653 5654 5655 5656 5656 5657 5657 5658 5659 5660 5661 5661 5662 5663 5665 5666 5667 5669 5671 5673 5674 5675 5676 5678 5679 5680 5681 5682 5683 5683 5684
5595 5597 5600 5603 5607 5611 5614 5617 5619 5621 5622 5623 5624 5625 5626 5627 5628 5630 5631 5633 5635 5636 5637 5638 5639 5640 5641 5641 5642 5642 5643 5644 5645 5646 5646 5647 5648 5650 5650 5651 5652 5653 5654 5654 5655 5656 5657 5658 5659 5660 5661 5663 5663 5665 5666 5668 5670 5672 5673 5674 5675 5676 5678 5679 5680 5680 5680 5680 5681
5598 5600 5601 5604 5606 5609 5612 5616 5619 5621 5622 5624 5625 5626 5627 5628 5629 5630 5631 5633 5633 5634 5635 5636 5637 5637 5638 5639 5639 5640 5641 5641 5642 5643 5644 5646 5646 5647 5648 5649 5650 5650 5651 5652 5653 5654 5655 5656 5657 5659 5661 5663 5664 5664 5665 5666 5669 5671 5672 5672 5672 5673 5675 5676 5676 5676 5676 5677 5678
5602 5604 5605 5606 5607 5609 5611 5613 5615 5618 5620 5622 5624 5626 5627 5628 5629 5630 5631 5631 5632 5632 5633 5634 5635 5636 5637 5637 5638 5638 5639 5640 5641 5641 5642 5643 5644 5645 5646 5646 5647 5648 5649 5651 5651 5653 5655 5656 5658 5659 5661 5662 5664 5665 5666 5667 5668 5669 5669 5669 5670 5671 5671 5671 5672 5673 5674 5674 5675
5602 5604 5606 5608 5610 5611 5612 5613 5615 5616 5618 5620 5622 5624 5626 5626 5627 5628 5629 5630 5631 5631 5631 5633 5635 5636 5637 5637 5637 5638 5638 5639 5640 5640 5640 5641 5642 5643 5644 5644 5645 5646 5647 5648 5650 5652 5655 5657 5660 5661 5661 5661 5663 5664 5665 5666 5666 5666 5666 5666 5667 5667 5668 5669 5669 5670 5671 5671 5672
5599 5601 5604 5608 5611 5613 5615 5616 5616 5617 5618 5620 5622 5623 5624 5625 5626 5627 5628 5629 5630 5631 5631 5633 5634 5635 5636 5636 5637 5637 5637 5637 5637 5638 5639 5640 5640 5641 5642 5643 5643 5644 5646 5647 5649 5651 5654 5657 5658 5660 5661 5661 5661 5661 5660 5661 5661 5662 5663 5663 5664 5665 5665 5666 5666 5667 5668 5669 5670
5597 5598 5601 5604 5607 5611 5613 5614 5615 5616 5618 5619 5621 5622 5622 5623 5624 5625 5626 5627 5629 5630 5631 5632 5633 5634 5634 5635 5635 5636 5636 5636 5637 5637 5638 5638 5639 5640 5641 5641 5643 5644 5645 5647 5649 5651 5652 5654 5656 5657 5658 5659 5658 5657 5657 5657 5658 5659 5660 5660 5661 5662 5663 5663 5664 5665 5666 5666 5667
5597 5598 5600 5601 5603 5605 5607 5609 5611 5613 5615 5617 5619 5619 5619 5620 5621 5621 5623 5624 5626 5628 5629 5630 5631 5631 5632 5632 5633 5633 5634 5635 5636 5637 5638 5639 5639 5640 5641 5642 5643 5645 5646 5647 5648 5649 5650 5651 5652 5653 5654 5654 5654 5654 5654 5655 5655 5656 5656 5657 5658 5659 5660 5661 5661 5662 5663 5664 5665
5597 5598 5600 5601 5602 5603 5605 5606 5607 5608 5610 5612 5614 5615 5616 5617 5619 5620 5622 5623 5624 5625 5626 5627 5628 5629 5629 5630 5630 5631 5631 5632 5633 5634 5636 5637 5639 5639 5640 5641 5642 5643 5644 5646 5647 5647 5647 5647 5648 5649 5650 5650 5651 5651 5651 5652 5652 5653 5653 5654 5655 5656 5656 5657 5658 5659 5660 5661 5661
5597 5598 5599 5600 5601 5603 5604 5605 5606 5607 5608 5609 5610 5610 5612 5613 5616 5618 5620 5622 5623 5623 5624 5625 5626 5627 5627 5627 5628 5628 5629 5630 5631 5631 5632 5633 5635 5636 5638 5639 5639 5640 5641 5642 5643 5644 5644 5644 5644 5645 5646 5646 5647 5648 5648 5649 5650 5650 5651 5651 5652 5653 5654 5655 5656 5657 5658 5658 5659
5597 5598 5598 5599 5600 5601 5603 5604 5606 5607 5608 5609 5609 5610 5611 5611 5613 5614 5616 5618 5620 5621 5622 5623 5624 5624 5625 5625 5625 5626 5626 5627 5628 5628 5629 5630 5631 5632 5634 5636 5637 5638 5639 5639 5640 5640 5641 5641 5641 5641 5642 5643 5644 5646 5646 5647 5648 5649 5650 5651 5651 5652 5653 5654 5654 5655 5655 5655 5656
5596 5596 5597 5598 5599 5600 5601 5602 5604 5606 5607 5608 5609 5610 5610 5611 5612 5613 5614 5615 5616 5617 5619 5620 5621 5621 5622 5622 5622 5622 5622 5623 5624 5625 5626 5627 5628 5629 5631 5633 5634 5636 5637 5638 5638 5638 5638 5638 5638 5639 5640 5641 5643 5644 5645 5645 5646 5647 5648 5649 5649 5650 5651 5651 5651 5652 5652 5652 5652
5596 5596 5597 5597 5598 5599 5600 5601 5602 5603 5604 5606 5607 5608 5609 5610 5611 5612 5612 5613 5614 5615 5615 5616 5616 5617 5618 5618 5619 5620 5620 5621 5621 5622 5623 5624 5625 5626 5628 5629 5631 5632 5634 5635 5636 5636 5636 5636 5637 5638 5639 5640 5640 5641 5642 5642 5643 5644 5644 5645 5645 5646 5646 5647 5647 5647 5647 5647 5647
5596 5596 5597 5597 5598 5599 5600 5600 5601 5601 5602 5603 5604 5605 5606 5607 5608 5609 5610 5611 5611 5612 5612 5612 5613 5613 5614 5615 5616 5616 5617 5618 5619 5619 5620 5621 5622 5623 5624 5625 5626 5628 5629 5631 5632 5633 5634 5634 5634 5635 5636 5636 5637 5638 5638 5639 5640 5640 5641 5641 5642 5642 5642 5642 5642 5642 5642 5643 5643
5596 5596 5597 5597 5598 5598 5599 5600 5601 5601 5602 5602 5603 5604 5604 5605 5606 5606 5607 5608 5608 5609 5609 5610 5610 5611 5611 5612 5612 5613 5613 5614 5615 5616 5617 5618 5619 5620 5621 5621 5622 5623 5625 5626 5628 5629 5630 5630 5631 5631 5632 5633 5633 5634 5635 5635 5636 5636 5637 5637 5638 5637 5637 5637 5637 5638 5638 5639 5640
5596 5596 5597 5597 5597 5598 5599 5599 5600 5600 5601 5601 5602 5603 5603 5604 5604 5605 5605 5605 5606 5606 5607 5607 5608 5609 5609 5609 5610 5610 5610 5611 5612 5613 5614 5615 5616 5616 5617 5618 5619 5620 5621 5622 5623 5624 5625 5626 5626 5627 5627 5628 5629 5630 5630 5631 5631 5632 5633 5633 5633 5633 5633 5633 5634 5635 5636 5636 5637
5596 5596 5597 5597 5597 5597 5598 5598 5599 5599 5600 5601 5601 5601 5602 5602 5603 5603 5603 5603 5603 5604 5604 5605 5606 5606 5606 5606 5606 5607 5608 5608 5609 5610 5611 5612 5613 5614 5614 5615 5616 5616 5617 5618 5619 5620 5620 5621 5621 5622 5623 5624 5625 5625 5626 5627 5628 5628 5629 5629 5630 5630 5630 5631 5631 5632 5632 5633 5634
5596 5596 5596 5597 5597 5597 5597 5598 5598 5598 5599 5599 5600 5600 5600 5601 5601 5601 5601 5601 5601 5601 5602 5602 5603 5603 5603 5603 5604 5604 5605 5606 5606 5607 5608 5609 5610 5611 5611 5612 5612 5613 5614 5615 5615 5616 5616 5617 5618 5619 5619 5620 5621 5621 5622 5623 5624 5625 5625 5626 5626 5626 5627 5627 5628 5629 5630 5630 5631
5596 5596 5596 5596 5596 5596 5597 5597 5597 5597 5597 5598 5598 5598 5598 5599 5599 5599 5599 5599 5599 5600 5600 5600 5601 5601 5601 5602 5602 5602 5602 5603 5604 5605 5605 5606 5606 5607 5608 5609 5609 5610 5611 5611 5612 5613 5613 5614 5615 5615 5616 5616 5617 5618 5619 5620 5621 5621 5622 5622 5623 5624 5624 5625 5625 5626 5626 5627 5628
5595 5595 5595 5595 5595 5595 5596 5596 5596 5596 5596 5596 5596 5596 5596 5596 5596 5597 5597 5597 5597 5598 5598 5598 5599 5599 5599 5600 5600 5600 5601 5601 5602 5602 5603 5603 5604 5605 5605 5606 5606 5607 5608 5608 5609 5610 5610 5611 5611 5612 5613 5613 5614 5615 5616 5616 5617 5618 5619 5620 5620 5621 5621 5622 5622 5623 5624 5625 5626